Location: Newark
(54.2500°N, 9.1833°E)
Time: 12:31:19
(UTC+00:00)

Vanguard 2 Rocket - Pass Details

Date: 10 December 2019
Orbit: 554 x 3326 km, 32.9° (Epoch: 17 January)

Event Time Altitude Azimuth Distance (km) Brightness Sun altitude
Rises 20:19:39 0° 247° (WSW) 5,253 11.2 -44.6°
Reaches altitude 10° 20:25:57 10° 224° (SW) 3,550 10.0 -45.5°
Enters shadow 20:26:29 11° 221° (SW) 3,431 9.9 -45.5°
